Location: *
(58.7167°N, 26.1833°E)
Time: 04:03:23
(UTC+00:00)

Cosmos 2058 Rocket - Pass Details

Date: 25 August 2019
Orbit: 610 x 640 km, 82.5° (Epoch: 18 September)

Event Time Altitude Azimuth Distance (km) Brightness Sun altitude
Exits shadow 22:58:52 31° 134° (SE) 1,130 4.1 -20.2°
Maximum altitude 23:00:18 40° 93° (E) 947 4.0 -20.1°
Drops below altitude 10° 23:04:33 10° 24° (NNE) 2,045 6.9 -20.0°
Sets 23:06:53 0° 17° (NNE) 2,956 8.2 -20.0°
